ジョンソン彗星

48P/Johnson (2025)

English version
Home page
Updated on July 13, 2025

---------------------------------------------------------------------

・ プロフィール

・ 写真集

・ 軌道要素

Epoch 2024 Mar. 31.0 TT = JDT 2460400.5
T 2025 Mar. 2.62511 TT                                  Rudenko
q   2.0064820            (2000.0)            P               Q
n   0.15046973     Peri.  216.77070     +0.82443425     +0.53000435
a   3.5008215      Node   110.06798     -0.45579572     +0.82969774
e   0.4268540      Incl.   12.20055     -0.33549729     +0.17520576
P   6.55
>From 1578 observations 2011 Apr. 12-2024 May 11, mean residual 0".6.
     Nongravitational parameters A1 = -0.17, A2 = +0.0012.

・ 星図

・ 光度変化

        m1 = 14.5 + 5 logΔ +  5.0 log r          [    ,-200]  (              〜2024年 8月14日)
        m1 =  1.5 + 5 logΔ + 35   log r(t - 40)  [-200, 295]  (2024年 8月14日〜2025年12月22日)
        m1 = 14.5 + 5 logΔ +  5.0 log r          [ 295,    ]  (2025年12月22日〜              )

---------------------------------------------------------------------

軌道要素はM.P.E.C. 2024-J304に掲載されたものです。
星図はステラナビゲータ Ver.10 (アストロアーツ) で作成したものです。
光度グラフはComet for Windowsで作成したものです。

---------------------------------------------------------------------

Copyright(C) Seiichi Yoshida (comet@aerith.net). All rights reserved.